Location: *
(50.3440°N, 18.6237°E)
Time: 18:00:36
(UTC+00:00)

NOSS 3-2 (A) - Pass Details

Date: 30 November 2020
Orbit: 791 x 1417 km, 63.4° (Epoch: 20 December)

Event Time Altitude Azimuth Distance (km) Brightness Sun altitude
Rises 17:30:03 0° 205° (SSW) 3,348 6.7 -25.4°
Reaches altitude 10° 17:32:24 10° 201° (SSW) 2,466 5.9 -25.7°
Enters shadow 17:37:23 55° 147° (SSE) 1,087 3.5 -26.5°
